This is the latest recevied weather packets stored in our database for station/object KN4MGS. If no packets are shown the sender has not sent any weather packets the latest 10 day(s).
| Time | Temp. | Humidity | Pressure | Rain* | Wind** | Luminosity | Snow |
|---|---|---|---|---|---|---|---|
| 1777984548 | 16.11° C | 84% | 1020.9 hPa | 0 mm | - | 227 W/m² | - |
| 1777984244 | 16.11° C | 85% | 1020.8 hPa | 0 mm | - | 123 W/m² | - |
| 1777983941 | 15.56° C | 87% | 1020.8 hPa | 0 mm | - | 50 W/m² | - |
| 1777983639 | 15° C | 88% | 1020.8 hPa | 0 mm | - | 47 W/m² | - |
| 1777983335 | 14.44° C | 90% | 1020.8 hPa | 0 mm | - | 46 W/m² | - |
| 1777983032 | 13.89° C | 91% | 1021 hPa | 0 mm | - | 79 W/m² | - |
| 1777982728 | 12.78° C | 95% | 1020.8 hPa | 0 mm | - | 42 W/m² | - |
| 1777982424 | 12.22° C | 98% | 1020.5 hPa | 0 mm | - | 41 W/m² | - |
| 1777982119 | 11.11° C | 99% | 1020.7 hPa | 0 mm | - | 38 W/m² | - |
| 1777981816 | 10.56° C | 99% | 1020.6 hPa | 0 mm | - | 34 W/m² | - |
| 1777981513 | 10.56° C | 99% | 1020.6 hPa | 0 mm | - | 34 W/m² | - |
| 1777981210 | 10° C | 99% | 1020.5 hPa | 0 mm | - | 39 W/m² | - |
| 1777980906 | 8.89° C | 99% | 1020.3 hPa | 0 mm | - | 40 W/m² | - |
| 1777980602 | 8.89° C | 99% | 1020.3 hPa | 0 mm | - | 41 W/m² | - |
| 1777980299 | 8.33° C | 99% | 1020.4 hPa | 0 mm | - | 38 W/m² | - |
| 1777979996 | 8.33° C | 99% | 1020.4 hPa | 0 mm | - | 33 W/m² | - |
| 1777979690 | 7.78° C | 99% | 1020.2 hPa | 0 mm | - | 28 W/m² | - |
| 1777979387 | 7.78° C | 99% | 1020.4 hPa | 0 mm | - | 23 W/m² | - |
| 1777979084 | 7.78° C | 99% | 1020.4 hPa | 0 mm | - | 19 W/m² | - |
| 1777978780 | 7.78° C | 99% | 1020.3 hPa | 0 mm | - | 15 W/m² | - |
| 1777978477 | 7.78° C | 99% | 1020.2 hPa | 0 mm | - | 11 W/m² | - |
| 1777978173 | 7.78° C | 99% | 1020.2 hPa | 0 mm | - | 8 W/m² | - |
| 1777977871 | 7.78° C | 99% | 1020.1 hPa | 0 mm | - | 5 W/m² | - |
| 1777977567 | 7.78° C | 99% | 1020.4 hPa | 0 mm | - | 4 W/m² | - |
| 1777977265 | 7.78° C | 99% | 1020.1 hPa | 0 mm | - | 3 W/m² | - |
* Rain latest hour (hover to see other rain measurements)
** Current wind speed in m/s (hover to see current wind gust speed)